Terminal Aerodrome Forecast
Issued by NWS Upton, NY

Home | Current Version | Previous Version | Text Only | Print | Product List | Glossary On
Versions: 1 2 3 4 5 6 7 8 9 10 11 12 13 14 15 16 17 18 19 20 21 22 23 24 25 26 27 28 29 30
000
FTUS41 KOKX 181100
TAFBDR
TAF
KBDR 181135Z 1812/1912 29012G18KT P6SM FEW035 BKN100
     FM181500 30016G23KT P6SM SCT035 SCT050
     FM182300 31009KT P6SM SCT035=

USA.gov is the U.S. government's official web portal to all federal, state and local government web resources and services.